Flag for Switzerland Weather past 2 weeks in Olten, Solothurn, Switzerland

Now
28 °F

Chilly.


Feels Like: 28 °F
Forecast: 29 / 50 °F
Wind: 2 mph from West

Location: Wynau

Current Time: Dec 22, 2014 at 8:18:25 AM

Latest Report: Dec 22, 2014 at 7:00 AM


Visibility: N/A

Pressure: 30.54 "Hg

Humidity: 94%

Dew point: 26 °F

Location of OltenLocation

Historic Weather in Olten — Graph

°F

Olten temperature yesterday

Maximum temperature yesterday: 44 °F (at 2:00 PM)
Minimum temperature yesterday: 30 °F (at 11:00 PM)
Average temperature yesterday: 37 °F

Past Weeks' High & Low Weather Summary

 TemperatureHumidityPressure
High55 °F (Dec 19, 2:00 PM)100% (Dec 10, 2:00 AM)30.63 "Hg (Dec 10, 2:00 AM)
Low27 °F (Dec 22, 5:00 AM)57% (Dec 20, 7:00 PM)29.88 "Hg (Dec 12, 4:00 PM)
Average40 °F88%30.19 "Hg
* Reported Dec 7 7:00 AM — Dec 22 7:00 AM, Olten, Weather by CustomWeather, © 2014

Note: Actual official high and low records may vary slightly from our data, if they occured in-between our weather recording intervals... More about our weather records

Advertising

Olten weather history for previous 24 hours

 ConditionsComfort  
Time TempWeatherWind HumidityBarometerVisibility
7:00 AM
Dec 22
28 °FChilly.2 mph94%30.54 "HgN/A
6:00 AM27 °FChilly.1 mph96%30.55 "HgN/A
5:00 AM27 °FChilly.1 mph100%30.55 "HgN/A
3:00 AM30 °FChilly.2 mph92%30.57 "HgN/A
2:00 AM28 °FChilly.2 mph92%30.57 "HgN/A
1:00 AM28 °FChilly.1 mph100%30.59 "HgN/A
12:00 AM29 °FChilly.No wind100%30.59 "HgN/A
11:00 PM
Dec 21
30 °FChilly.1 mph100%30.60 "HgN/A
9:00 PM31 °FChilly.1 mph98%30.61 "HgN/A
8:00 PM33 °FChilly.1 mph91%30.60 "HgN/A
7:00 PM34 °FChilly.1 mph96%30.60 "HgN/A
6:00 PM36 °FChilly.1 mph86%30.58 "HgN/A
5:00 PM39 °FChilly.2 mph83%30.56 "HgN/A
4:00 PM41 °FQuite cool.2 mph78%30.55 "HgN/A
3:00 PM44 °FQuite cool.2 mph60%30.55 "HgN/A
2:00 PM44 °FQuite cool.3 mph63%30.56 "HgN/A
1:00 PM44 °FQuite cool.2 mph69%30.57 "HgN/A
12:00 PM42 °FQuite cool.1 mph78%30.59 "HgN/A
11:00 AM37 °FChilly.1 mph87%30.61 "HgN/A
10:00 AM33 °FChilly.1 mph93%30.62 "HgN/A
9:00 AM31 °FChilly.1 mph96%30.63 "HgN/A
8:00 AM32 °FChilly.2 mph98%30.61 "HgN/A
Weather by CustomWeather, © 2014

See weather overviewHow to use our weather pages